Location: Casilda
(33.0440°S, 61.1680°W)
Time: 23:38:30
(UTC-03:00)

ISS - Pass Details

Date: 05 May 2021
Orbit: 417 x 422 km, 51.6° (Epoch: 12 May)

Event Time Altitude Azimuth Distance (km) Brightness Sun altitude
Rises 19:37:39 0° 213° (SSW) 2,394 0.4 -16.4°
Reaches altitude 10° 19:40:13 10° 193° (SSW) 1,522 -0.9 -16.9°
Enters shadow 19:41:46 17° 168° (SSE) 1,172 -1.7 -17.2°
